Year,Month,Day,Hour,Minute,Value (Times are PST for temperature in C)
2012,06,15,00,00,9.20
2012,06,15,00,01,9.20
2012,06,15,00,02,9.20
2012,06,15,00,03,9.20
2012,06,15,00,04,9.20
2012,06,15,00,05,9.20
2012,06,15,00,06,9.20
2012,06,15,00,07,9.20
2012,06,15,00,08,9.20
2012,06,15,00,09,9.20
2012,06,15,00,10,9.20
2012,06,15,00,11,9.20
2012,06,15,00,12,9.20
2012,06,15,00,13,9.10
2012,06,15,00,14,9.10
2012,06,15,00,15,9.10
2012,06,15,00,16,9.10
2012,06,15,00,17,9.10
2012,06,15,00,18,9.10
2012,06,15,00,19,9.10
2012,06,15,00,20,9.10
2012,06,15,00,21,9.10
2012,06,15,00,22,9.10
2012,06,15,00,23,9.10
2012,06,15,00,24,9.10
2012,06,15,00,25,9.10
2012,06,15,00,26,9.10
2012,06,15,00,27,9.10
2012,06,15,00,28,9.00
2012,06,15,00,29,9.00
2012,06,15,00,30,9.00
2012,06,15,00,31,9.00
2012,06,15,00,32,9.00
2012,06,15,00,33,9.00
2012,06,15,00,34,9.00
2012,06,15,00,35,9.00
2012,06,15,00,36,9.00
2012,06,15,00,37,8.90
2012,06,15,00,38,8.90
2012,06,15,00,39,8.90
2012,06,15,00,40,8.90
2012,06,15,00,41,8.90
2012,06,15,00,42,9.00
2012,06,15,00,43,9.00
2012,06,15,00,44,9.00
2012,06,15,00,45,9.00
2012,06,15,00,46,9.00
2012,06,15,00,47,9.00
2012,06,15,00,48,9.00
2012,06,15,00,49,8.90
2012,06,15,00,50,8.90
2012,06,15,00,51,8.80
2012,06,15,00,52,8.80
2012,06,15,00,53,8.80
2012,06,15,00,54,8.70
2012,06,15,00,55,8.70
2012,06,15,00,56,8.70
2012,06,15,00,57,8.70
2012,06,15,00,58,8.70
2012,06,15,00,59,8.70
2012,06,15,01,00,8.70
2012,06,15,01,01,8.70
2012,06,15,01,02,8.70
2012,06,15,01,03,8.70
2012,06,15,01,04,8.70
2012,06,15,01,05,8.80
2012,06,15,01,06,8.80
2012,06,15,01,07,8.80
2012,06,15,01,08,8.80
2012,06,15,01,09,8.90
2012,06,15,01,10,8.90
2012,06,15,01,11,8.90
2012,06,15,01,12,8.80
2012,06,15,01,13,8.80
2012,06,15,01,14,8.80
2012,06,15,01,15,8.80
2012,06,15,01,16,8.80
2012,06,15,01,17,8.80
2012,06,15,01,18,8.80
2012,06,15,01,19,8.80
2012,06,15,01,20,8.70
2012,06,15,01,21,8.70
2012,06,15,01,22,8.70
2012,06,15,01,23,8.70
2012,06,15,01,24,8.70
2012,06,15,01,25,8.70
2012,06,15,01,26,8.70
2012,06,15,01,27,8.70
2012,06,15,01,28,8.70
2012,06,15,01,29,8.70
2012,06,15,01,30,8.70
2012,06,15,01,31,8.70
2012,06,15,01,32,8.70
2012,06,15,01,33,8.70
2012,06,15,01,34,8.70
2012,06,15,01,35,8.70
2012,06,15,01,36,8.80
2012,06,15,01,37,8.90
2012,06,15,01,38,9.00
2012,06,15,01,39,9.10
2012,06,15,01,40,9.10
2012,06,15,01,41,9.10
2012,06,15,01,42,9.10
2012,06,15,01,43,9.00
2012,06,15,01,44,9.00
2012,06,15,01,45,9.00
2012,06,15,01,46,9.00
2012,06,15,01,47,9.00
2012,06,15,01,48,9.00
2012,06,15,01,49,8.90
2012,06,15,01,50,8.90
2012,06,15,01,51,8.80
2012,06,15,01,52,8.80
2012,06,15,01,53,8.70
2012,06,15,01,54,8.70
2012,06,15,01,55,8.70
2012,06,15,01,56,8.60
2012,06,15,01,57,8.60
2012,06,15,01,58,8.60
2012,06,15,01,59,8.50
2012,06,15,02,00,8.50
2012,06,15,02,01,8.50
2012,06,15,02,02,8.40
2012,06,15,02,03,8.40
2012,06,15,02,04,8.40
2012,06,15,02,05,8.40
2012,06,15,02,06,8.40
2012,06,15,02,07,8.40
2012,06,15,02,08,8.40
2012,06,15,02,09,8.40
2012,06,15,02,10,8.30
2012,06,15,02,11,8.30
2012,06,15,02,12,8.30
2012,06,15,02,13,8.20
2012,06,15,02,14,8.20
2012,06,15,02,15,8.20
2012,06,15,02,16,8.20
2012,06,15,02,17,8.20
2012,06,15,02,18,8.20
2012,06,15,02,19,8.20
2012,06,15,02,20,8.20
2012,06,15,02,21,8.20
2012,06,15,02,22,8.20
2012,06,15,02,23,8.20
2012,06,15,02,24,8.30
2012,06,15,02,25,8.30
2012,06,15,02,26,8.30
2012,06,15,02,27,8.30
2012,06,15,02,28,8.20
2012,06,15,02,29,8.20
2012,06,15,02,30,8.20
2012,06,15,02,31,8.20
2012,06,15,02,32,8.20
2012,06,15,02,33,8.10
2012,06,15,02,34,8.10
2012,06,15,02,35,8.10
2012,06,15,02,36,8.00
2012,06,15,02,37,8.00
2012,06,15,02,38,8.00
2012,06,15,02,39,8.10
2012,06,15,02,40,8.00
2012,06,15,02,41,8.00
2012,06,15,02,42,8.00
2012,06,15,02,43,8.00
2012,06,15,02,44,7.90
2012,06,15,02,45,7.90
2012,06,15,02,46,7.90
2012,06,15,02,47,7.90
2012,06,15,02,48,7.80
2012,06,15,02,49,7.80
2012,06,15,02,50,7.80
2012,06,15,02,51,7.80
2012,06,15,02,52,7.80
2012,06,15,02,53,7.80
2012,06,15,02,54,8.00
2012,06,15,02,55,8.00
2012,06,15,02,56,8.10
2012,06,15,02,57,8.20
2012,06,15,02,58,8.20
2012,06,15,02,59,8.20
2012,06,15,03,00,8.20
2012,06,15,03,01,8.10
2012,06,15,03,02,8.10
2012,06,15,03,03,8.10
2012,06,15,03,04,8.00
2012,06,15,03,05,8.00
2012,06,15,03,06,8.00
2012,06,15,03,07,7.90
2012,06,15,03,08,7.90
2012,06,15,03,09,7.90
2012,06,15,03,10,7.80
2012,06,15,03,11,7.80
2012,06,15,03,12,7.80
2012,06,15,03,13,7.80
2012,06,15,03,14,7.80
2012,06,15,03,15,7.80
2012,06,15,03,16,7.80
2012,06,15,03,17,7.80
2012,06,15,03,18,7.80
2012,06,15,03,19,7.80
2012,06,15,03,20,7.80
2012,06,15,03,21,7.80
2012,06,15,03,22,7.80
2012,06,15,03,23,7.80
2012,06,15,03,24,7.90
2012,06,15,03,25,8.00
2012,06,15,03,26,8.00
2012,06,15,03,27,8.00
2012,06,15,03,28,8.00
2012,06,15,03,29,8.00
2012,06,15,03,30,8.00
2012,06,15,03,31,8.10
2012,06,15,03,32,8.10
2012,06,15,03,33,8.10
2012,06,15,03,34,8.10
2012,06,15,03,35,8.10
2012,06,15,03,36,8.20
2012,06,15,03,37,8.20
2012,06,15,03,38,8.20
2012,06,15,03,39,8.20
2012,06,15,03,40,8.20
2012,06,15,03,41,8.20
2012,06,15,03,42,8.20
2012,06,15,03,43,8.20
2012,06,15,03,44,8.20
2012,06,15,03,45,8.20
2012,06,15,03,46,8.20
2012,06,15,03,47,8.20
2012,06,15,03,48,8.20
2012,06,15,03,49,8.20
2012,06,15,03,50,8.20
2012,06,15,03,51,8.10
2012,06,15,03,52,8.10
2012,06,15,03,53,8.10
2012,06,15,03,54,8.10
2012,06,15,03,55,8.10
2012,06,15,03,56,8.20
2012,06,15,03,57,8.20
2012,06,15,03,58,8.20
2012,06,15,03,59,8.20
2012,06,15,04,00,8.20
2012,06,15,04,01,8.20
2012,06,15,04,02,8.20
2012,06,15,04,03,8.20
2012,06,15,04,04,8.10
2012,06,15,04,05,8.10
2012,06,15,04,06,8.10
2012,06,15,04,07,8.10
2012,06,15,04,08,8.10
2012,06,15,04,09,8.10
2012,06,15,04,10,8.10
2012,06,15,04,11,8.10
2012,06,15,04,12,8.10
2012,06,15,04,13,8.10
2012,06,15,04,14,8.20
2012,06,15,04,15,8.20
2012,06,15,04,16,8.20
2012,06,15,04,17,8.20
2012,06,15,04,18,8.20
2012,06,15,04,19,8.20
2012,06,15,04,20,8.20
2012,06,15,04,21,8.20
2012,06,15,04,22,8.20
2012,06,15,04,23,8.20
2012,06,15,04,24,8.20
2012,06,15,04,25,8.20
2012,06,15,04,26,8.10
2012,06,15,04,27,8.10
2012,06,15,04,28,8.10
2012,06,15,04,29,8.10
2012,06,15,04,30,8.10
2012,06,15,04,31,8.10
2012,06,15,04,32,8.10
2012,06,15,04,33,8.10
2012,06,15,04,34,8.10
2012,06,15,04,35,8.10
2012,06,15,04,36,8.10
2012,06,15,04,37,8.20
2012,06,15,04,38,8.20
2012,06,15,04,39,8.20
2012,06,15,04,40,8.20
2012,06,15,04,41,8.20
2012,06,15,04,42,8.20
2012,06,15,04,43,8.20
2012,06,15,04,44,8.20
2012,06,15,04,45,8.20
2012,06,15,04,46,8.20
2012,06,15,04,47,8.20
2012,06,15,04,48,8.20
2012,06,15,04,49,8.30
2012,06,15,04,50,8.20
2012,06,15,04,51,8.20
2012,06,15,04,52,8.20
2012,06,15,04,53,8.20
2012,06,15,04,54,8.20
2012,06,15,04,55,8.20
2012,06,15,04,56,8.20
2012,06,15,04,57,8.20
2012,06,15,04,58,8.20
2012,06,15,04,59,8.20
2012,06,15,05,00,8.20
2012,06,15,05,01,8.20
2012,06,15,05,02,8.20
2012,06,15,05,03,8.20
2012,06,15,05,04,8.20
2012,06,15,05,05,8.20
2012,06,15,05,06,8.20
2012,06,15,05,07,8.20
2012,06,15,05,08,8.20
2012,06,15,05,09,8.20
2012,06,15,05,10,8.20
2012,06,15,05,11,8.20
2012,06,15,05,12,8.20
2012,06,15,05,13,8.20
2012,06,15,05,14,8.20
2012,06,15,05,15,8.20
2012,06,15,05,16,8.20
2012,06,15,05,17,8.10
2012,06,15,05,18,8.10
2012,06,15,05,19,8.10
2012,06,15,05,20,8.10
2012,06,15,05,21,8.10
2012,06,15,05,22,8.10
2012,06,15,05,23,8.10
2012,06,15,05,24,8.10
2012,06,15,05,25,8.10
2012,06,15,05,26,8.10
2012,06,15,05,27,8.10
2012,06,15,05,28,8.10
2012,06,15,05,29,8.10
2012,06,15,05,30,8.10
2012,06,15,05,31,8.20
2012,06,15,05,32,8.20
2012,06,15,05,33,8.20
2012,06,15,05,34,8.20
2012,06,15,05,35,8.20
2012,06,15,05,36,8.20
2012,06,15,05,37,8.20
2012,06,15,05,38,8.20
2012,06,15,05,39,8.20
2012,06,15,05,40,8.20
2012,06,15,05,41,8.20
2012,06,15,05,42,8.20
2012,06,15,05,43,8.20
2012,06,15,05,44,8.20
2012,06,15,05,45,8.20
2012,06,15,05,46,8.20
2012,06,15,05,47,8.30
2012,06,15,05,48,8.30
2012,06,15,05,49,8.30
2012,06,15,05,50,8.30
2012,06,15,05,51,8.40
2012,06,15,05,52,8.40
2012,06,15,05,53,8.40
2012,06,15,05,54,8.40
2012,06,15,05,55,8.40
2012,06,15,05,56,8.40
2012,06,15,05,57,8.40
2012,06,15,05,58,8.40
2012,06,15,05,59,8.50
2012,06,15,06,00,8.50
2012,06,15,06,01,8.50
2012,06,15,06,02,8.50
2012,06,15,06,03,8.60
2012,06,15,06,04,8.60
2012,06,15,06,05,8.60
2012,06,15,06,06,8.70
2012,06,15,06,07,8.70
2012,06,15,06,08,8.70
2012,06,15,06,09,8.70
2012,06,15,06,10,8.70
2012,06,15,06,11,8.70
2012,06,15,06,12,8.70
2012,06,15,06,13,8.70
2012,06,15,06,14,8.70
2012,06,15,06,15,8.80
2012,06,15,06,16,8.80
2012,06,15,06,17,8.80
2012,06,15,06,18,8.90
2012,06,15,06,19,8.90
2012,06,15,06,20,8.90
2012,06,15,06,21,9.00
2012,06,15,06,22,9.00
2012,06,15,06,23,9.00
2012,06,15,06,24,9.00
2012,06,15,06,25,9.10
2012,06,15,06,26,9.10
2012,06,15,06,27,9.10
2012,06,15,06,28,9.10
2012,06,15,06,29,9.20
2012,06,15,06,30,9.20
2012,06,15,06,31,9.20
2012,06,15,06,32,9.20
2012,06,15,06,33,9.20
2012,06,15,06,34,9.20
2012,06,15,06,35,9.20
2012,06,15,06,36,9.20
2012,06,15,06,37,9.30
2012,06,15,06,38,9.30
2012,06,15,06,39,9.30
2012,06,15,06,40,9.30
2012,06,15,06,41,9.40
2012,06,15,06,42,9.40
2012,06,15,06,43,9.40
2012,06,15,06,44,9.50
2012,06,15,06,45,9.50
2012,06,15,06,46,9.60
2012,06,15,06,47,9.60
2012,06,15,06,48,9.70
2012,06,15,06,49,9.70
2012,06,15,06,50,9.70
2012,06,15,06,51,9.70
2012,06,15,06,52,9.70
2012,06,15,06,53,9.80
2012,06,15,06,54,9.80
2012,06,15,06,55,9.80
2012,06,15,06,56,9.80
2012,06,15,06,57,9.90
2012,06,15,06,58,9.90
2012,06,15,06,59,9.90
2012,06,15,07,00,9.90
2012,06,15,07,01,9.90
2012,06,15,07,02,9.90
2012,06,15,07,03,9.90
2012,06,15,07,04,9.90
2012,06,15,07,05,9.90
2012,06,15,07,06,9.90
2012,06,15,07,07,9.90
2012,06,15,07,08,9.90
2012,06,15,07,09,9.90
2012,06,15,07,10,9.90
2012,06,15,07,11,10.00
2012,06,15,07,12,10.10
2012,06,15,07,13,10.10
2012,06,15,07,14,10.10
2012,06,15,07,15,10.10
2012,06,15,07,16,10.10
2012,06,15,07,17,10.10
2012,06,15,07,18,10.10
2012,06,15,07,19,10.10
2012,06,15,07,20,10.10
2012,06,15,07,21,10.10
2012,06,15,07,22,10.10
2012,06,15,07,23,10.20
2012,06,15,07,24,10.20
2012,06,15,07,25,10.20
2012,06,15,07,26,10.30
2012,06,15,07,27,10.30
2012,06,15,07,28,10.40
2012,06,15,07,29,10.40
2012,06,15,07,30,10.40
2012,06,15,07,31,10.40
2012,06,15,07,32,10.40
2012,06,15,07,33,10.40
2012,06,15,07,34,10.40
2012,06,15,07,35,10.60
2012,06,15,07,36,10.60
2012,06,15,07,37,10.60
2012,06,15,07,38,10.60
2012,06,15,07,39,10.60
2012,06,15,07,40,10.70
2012,06,15,07,41,10.80
2012,06,15,07,42,10.80
2012,06,15,07,43,10.80
2012,06,15,07,44,10.90
2012,06,15,07,45,10.90
2012,06,15,07,46,10.90
2012,06,15,07,47,10.90
2012,06,15,07,48,10.80
2012,06,15,07,49,10.80
2012,06,15,07,50,10.70
2012,06,15,07,51,10.70
2012,06,15,07,52,10.80
2012,06,15,07,53,10.80
2012,06,15,07,54,10.80
2012,06,15,07,55,10.80
2012,06,15,07,56,10.80
2012,06,15,07,57,10.70
2012,06,15,07,58,10.70
2012,06,15,07,59,10.80
2012,06,15,08,00,10.80
2012,06,15,08,01,10.80
2012,06,15,08,02,10.80
2012,06,15,08,03,10.80
2012,06,15,08,04,10.80
2012,06,15,08,05,10.80
2012,06,15,08,06,10.80
2012,06,15,08,07,10.70
2012,06,15,08,08,10.70
2012,06,15,08,09,10.70
2012,06,15,08,10,10.60
2012,06,15,08,11,10.60
2012,06,15,08,12,10.60
2012,06,15,08,13,10.60
2012,06,15,08,14,10.60
2012,06,15,08,15,10.60
2012,06,15,08,16,10.60
2012,06,15,08,17,10.60
2012,06,15,08,18,10.60
2012,06,15,08,19,10.60
2012,06,15,08,20,10.60
2012,06,15,08,21,10.60
2012,06,15,08,22,10.70
2012,06,15,08,23,10.80
2012,06,15,08,24,10.80
2012,06,15,08,25,10.90
2012,06,15,08,26,10.90
2012,06,15,08,27,10.90
2012,06,15,08,28,10.90
2012,06,15,08,29,11.00
2012,06,15,08,30,11.10
2012,06,15,08,31,11.10
2012,06,15,08,32,11.10
2012,06,15,08,33,11.20
2012,06,15,08,34,11.20
2012,06,15,08,35,11.30
2012,06,15,08,36,11.30
2012,06,15,08,37,11.40
2012,06,15,08,38,11.40
2012,06,15,08,39,11.40
2012,06,15,08,40,11.40
2012,06,15,08,41,11.40
2012,06,15,08,42,11.40
2012,06,15,08,43,11.40
2012,06,15,08,44,11.40
2012,06,15,08,45,11.40
2012,06,15,08,46,11.30
2012,06,15,08,47,11.30
2012,06,15,08,48,11.40
2012,06,15,08,49,11.40
2012,06,15,08,50,11.40
2012,06,15,08,51,11.40
2012,06,15,08,52,11.40
2012,06,15,08,53,11.40
2012,06,15,08,54,11.40
2012,06,15,08,55,11.40
2012,06,15,08,56,11.40
2012,06,15,08,57,11.60
2012,06,15,08,58,11.60
2012,06,15,08,59,11.60
2012,06,15,09,00,11.60
2012,06,15,09,01,11.70
2012,06,15,09,02,11.70
2012,06,15,09,03,11.80
2012,06,15,09,04,11.80
2012,06,15,09,05,11.80
2012,06,15,09,06,11.80
2012,06,15,09,07,11.90
2012,06,15,09,08,12.00
2012,06,15,09,09,12.10
2012,06,15,09,10,12.20
2012,06,15,09,11,12.20
2012,06,15,09,12,12.20
2012,06,15,09,13,12.20
2012,06,15,09,14,12.20
2012,06,15,09,15,12.20
2012,06,15,09,16,12.10
2012,06,15,09,17,12.10
2012,06,15,09,18,12.10
2012,06,15,09,19,12.20
2012,06,15,09,20,12.20
2012,06,15,09,21,12.30
2012,06,15,09,22,12.30
2012,06,15,09,23,12.30
2012,06,15,09,24,12.30
2012,06,15,09,25,12.30
2012,06,15,09,26,12.30
2012,06,15,09,27,12.40
2012,06,15,09,28,12.40
2012,06,15,09,29,12.50
2012,06,15,09,30,12.50
2012,06,15,09,31,12.50
2012,06,15,09,32,12.50
2012,06,15,09,33,12.40
2012,06,15,09,34,12.40
2012,06,15,09,35,12.40
2012,06,15,09,36,12.50
2012,06,15,09,37,12.50
2012,06,15,09,38,12.60
2012,06,15,09,39,12.50
2012,06,15,09,40,12.50
2012,06,15,09,41,12.50
2012,06,15,09,42,12.50
2012,06,15,09,43,12.50
2012,06,15,09,44,12.50
2012,06,15,09,45,12.50
2012,06,15,09,46,12.50
2012,06,15,09,47,12.50
2012,06,15,09,48,12.50
2012,06,15,09,49,12.60
2012,06,15,09,50,12.70
2012,06,15,09,51,12.60
2012,06,15,09,52,12.60
2012,06,15,09,53,12.60
2012,06,15,09,54,12.70
2012,06,15,09,55,12.70
2012,06,15,09,56,12.80
2012,06,15,09,57,12.80
2012,06,15,09,58,12.80
2012,06,15,09,59,12.80
2012,06,15,10,00,12.80
2012,06,15,10,01,12.80
2012,06,15,10,02,12.80
2012,06,15,10,03,12.80
2012,06,15,10,04,12.80
2012,06,15,10,05,12.80
2012,06,15,10,06,12.80
2012,06,15,10,07,12.80
2012,06,15,10,08,12.80
2012,06,15,10,09,12.70
2012,06,15,10,10,12.80
2012,06,15,10,11,12.70
2012,06,15,10,12,12.70
2012,06,15,10,13,12.80
2012,06,15,10,14,12.80
2012,06,15,10,15,12.80
2012,06,15,10,16,12.80
2012,06,15,10,17,12.90
2012,06,15,10,18,12.90
2012,06,15,10,19,12.80
2012,06,15,10,20,12.80
2012,06,15,10,21,12.80
2012,06,15,10,22,12.80
2012,06,15,10,23,12.80
2012,06,15,10,24,12.80
2012,06,15,10,25,12.80
2012,06,15,10,26,12.70
2012,06,15,10,27,12.70
2012,06,15,10,28,12.80
2012,06,15,10,29,12.80
2012,06,15,10,30,12.80
2012,06,15,10,31,12.90
2012,06,15,10,32,12.90
2012,06,15,10,33,13.00
2012,06,15,10,34,13.00
2012,06,15,10,35,12.90
2012,06,15,10,36,12.90
2012,06,15,10,37,13.00
2012,06,15,10,38,13.00
2012,06,15,10,39,13.00
2012,06,15,10,40,12.80
2012,06,15,10,41,12.80
2012,06,15,10,42,12.80
2012,06,15,10,43,12.90
2012,06,15,10,44,13.00
2012,06,15,10,45,13.00
2012,06,15,10,46,13.00
2012,06,15,10,47,12.90
2012,06,15,10,48,12.90
2012,06,15,10,49,12.90
2012,06,15,10,50,12.80
2012,06,15,10,51,12.80
2012,06,15,10,52,12.80
2012,06,15,10,53,12.90
2012,06,15,10,54,13.00
2012,06,15,10,55,13.10
2012,06,15,10,56,13.20
2012,06,15,10,57,13.20
2012,06,15,10,58,13.20
2012,06,15,10,59,13.10
2012,06,15,11,00,12.90
2012,06,15,11,01,12.90
2012,06,15,11,02,12.90
2012,06,15,11,03,12.90
2012,06,15,11,04,12.90
2012,06,15,11,05,12.90
2012,06,15,11,06,12.90
2012,06,15,11,07,13.00
2012,06,15,11,08,13.10
2012,06,15,11,09,13.10
2012,06,15,11,10,13.20
2012,06,15,11,11,13.20
2012,06,15,11,12,13.20
2012,06,15,11,13,13.10
2012,06,15,11,14,12.90
2012,06,15,11,15,12.80
2012,06,15,11,16,12.80
2012,06,15,11,17,12.80
2012,06,15,11,18,12.90
2012,06,15,11,19,12.90
2012,06,15,11,20,12.80
2012,06,15,11,21,12.80
2012,06,15,11,22,12.90
2012,06,15,11,23,12.90
2012,06,15,11,24,12.90
2012,06,15,11,25,12.90
2012,06,15,11,26,12.90
2012,06,15,11,27,13.00
2012,06,15,11,28,13.10
2012,06,15,11,29,13.20
2012,06,15,11,30,13.30
2012,06,15,11,31,13.40
2012,06,15,11,32,13.40
2012,06,15,11,33,13.50
2012,06,15,11,34,13.50
2012,06,15,11,35,13.50
2012,06,15,11,36,13.60
2012,06,15,11,37,13.70
2012,06,15,11,38,13.70
2012,06,15,11,39,13.70
2012,06,15,11,40,13.70
2012,06,15,11,41,13.70
2012,06,15,11,42,13.80
2012,06,15,11,43,13.80
2012,06,15,11,44,13.90
2012,06,15,11,45,13.90
2012,06,15,11,46,13.90
2012,06,15,11,47,14.00
2012,06,15,11,48,14.10
2012,06,15,11,49,14.20
2012,06,15,11,50,14.20
2012,06,15,11,51,14.10
2012,06,15,11,52,14.10
2012,06,15,11,53,14.10
2012,06,15,11,54,14.20
2012,06,15,11,55,14.20
2012,06,15,11,56,14.20
2012,06,15,11,57,14.30
2012,06,15,11,58,14.30
2012,06,15,11,59,14.40
2012,06,15,12,00,14.50
2012,06,15,12,01,14.60
2012,06,15,12,02,14.60
2012,06,15,12,03,14.60
2012,06,15,12,04,14.60
2012,06,15,12,05,14.70
2012,06,15,12,06,14.80
2012,06,15,12,07,14.80
2012,06,15,12,08,14.80
2012,06,15,12,09,14.80
2012,06,15,12,10,14.80
2012,06,15,12,11,14.80
2012,06,15,12,12,14.80
2012,06,15,12,13,14.70
2012,06,15,12,14,14.60
2012,06,15,12,15,14.50
2012,06,15,12,16,14.60
2012,06,15,12,17,14.60
2012,06,15,12,18,14.60
2012,06,15,12,19,14.50
2012,06,15,12,20,14.50
2012,06,15,12,21,14.60
2012,06,15,12,22,14.70
2012,06,15,12,23,14.70
2012,06,15,12,24,14.70
2012,06,15,12,25,14.70
2012,06,15,12,26,14.60
2012,06,15,12,27,14.60
2012,06,15,12,28,14.60
2012,06,15,12,29,14.60
2012,06,15,12,30,14.60
2012,06,15,12,31,14.70
2012,06,15,12,32,14.70
2012,06,15,12,33,14.80
2012,06,15,12,34,14.80
2012,06,15,12,35,14.80
2012,06,15,12,36,14.80
2012,06,15,12,37,14.80
2012,06,15,12,38,14.80
2012,06,15,12,39,14.80
2012,06,15,12,40,14.90
2012,06,15,12,41,15.00
2012,06,15,12,42,15.10
2012,06,15,12,43,15.00
2012,06,15,12,44,15.00
2012,06,15,12,45,15.00
2012,06,15,12,46,15.10
2012,06,15,12,47,15.20
2012,06,15,12,48,15.30
2012,06,15,12,49,15.40
2012,06,15,12,50,15.50
2012,06,15,12,51,15.50
2012,06,15,12,52,15.60
2012,06,15,12,53,15.60
2012,06,15,12,54,15.70
2012,06,15,12,55,15.70
2012,06,15,12,56,15.60
2012,06,15,12,57,15.60
2012,06,15,12,58,15.50
2012,06,15,12,59,15.50
2012,06,15,13,00,15.40
2012,06,15,13,01,15.30
2012,06,15,13,02,15.30
2012,06,15,13,03,15.30
2012,06,15,13,04,15.40
2012,06,15,13,05,15.50
2012,06,15,13,06,15.50
2012,06,15,13,07,15.50
2012,06,15,13,08,15.40
2012,06,15,13,09,15.40
2012,06,15,13,10,15.50
2012,06,15,13,11,15.50
2012,06,15,13,12,15.50
2012,06,15,13,13,15.60
2012,06,15,13,14,15.60
2012,06,15,13,15,15.60
2012,06,15,13,16,15.60
2012,06,15,13,17,15.50
2012,06,15,13,18,15.40
2012,06,15,13,19,15.40
2012,06,15,13,20,15.50
2012,06,15,13,21,15.50
2012,06,15,13,22,15.50
2012,06,15,13,23,15.40
2012,06,15,13,24,15.40
2012,06,15,13,25,15.50
2012,06,15,13,26,15.60
2012,06,15,13,27,15.70
2012,06,15,13,28,15.70
2012,06,15,13,29,15.70
2012,06,15,13,30,15.80
2012,06,15,13,31,15.70
2012,06,15,13,32,15.60
2012,06,15,13,33,15.60
2012,06,15,13,34,15.70
2012,06,15,13,35,15.80
2012,06,15,13,36,15.80
2012,06,15,13,37,15.80
2012,06,15,13,38,15.80
2012,06,15,13,39,15.80
2012,06,15,13,40,15.80
2012,06,15,13,41,15.80
2012,06,15,13,42,15.80
2012,06,15,13,43,15.90
2012,06,15,13,44,16.00
2012,06,15,13,45,16.10
2012,06,15,13,46,16.10
2012,06,15,13,47,16.10
2012,06,15,13,48,16.10
2012,06,15,13,49,16.10
2012,06,15,13,50,16.10
2012,06,15,13,51,16.10
2012,06,15,13,52,16.10
2012,06,15,13,53,16.10
2012,06,15,13,54,16.10
2012,06,15,13,55,16.00
2012,06,15,13,56,15.90
2012,06,15,13,57,15.90
2012,06,15,13,58,15.80
2012,06,15,13,59,15.80
2012,06,15,14,00,15.80
2012,06,15,14,01,15.80
2012,06,15,14,02,15.70
2012,06,15,14,03,15.70
2012,06,15,14,04,15.70
2012,06,15,14,05,15.80
2012,06,15,14,06,15.80
2012,06,15,14,07,15.80
2012,06,15,14,08,15.70
2012,06,15,14,09,15.70
2012,06,15,14,10,15.70
2012,06,15,14,11,15.70
2012,06,15,14,12,15.80
2012,06,15,14,13,15.90
2012,06,15,14,14,15.90
2012,06,15,14,15,16.00
2012,06,15,14,16,16.00
2012,06,15,14,17,16.10
2012,06,15,14,18,16.10
2012,06,15,14,19,16.10
2012,06,15,14,20,16.10
2012,06,15,14,21,16.10
2012,06,15,14,22,16.00
2012,06,15,14,23,15.90
2012,06,15,14,24,15.80
2012,06,15,14,25,15.80
2012,06,15,14,26,15.80
2012,06,15,14,27,15.80
2012,06,15,14,28,15.70
2012,06,15,14,29,15.70
2012,06,15,14,30,15.70
2012,06,15,14,31,15.70
2012,06,15,14,32,15.70
2012,06,15,14,33,15.70
2012,06,15,14,34,15.70
2012,06,15,14,35,15.70
2012,06,15,14,36,15.70
2012,06,15,14,37,15.60
2012,06,15,14,38,15.60
2012,06,15,14,39,15.60
2012,06,15,14,40,15.60
2012,06,15,14,41,15.70
2012,06,15,14,42,15.70
2012,06,15,14,43,15.70
2012,06,15,14,44,15.80
2012,06,15,14,45,15.80
2012,06,15,14,46,15.90
2012,06,15,14,47,15.90
2012,06,15,14,48,15.90
2012,06,15,14,49,15.90
2012,06,15,14,50,15.90
2012,06,15,14,51,15.90
2012,06,15,14,52,16.00
2012,06,15,14,53,16.10
2012,06,15,14,54,16.10
2012,06,15,14,55,16.20
2012,06,15,14,56,16.20
2012,06,15,14,57,16.20
2012,06,15,14,58,16.20
2012,06,15,14,59,16.30
2012,06,15,15,00,16.40
2012,06,15,15,01,16.40
2012,06,15,15,02,16.40
2012,06,15,15,03,16.50
2012,06,15,15,04,16.60
2012,06,15,15,05,16.60
2012,06,15,15,06,16.60
2012,06,15,15,07,16.60
2012,06,15,15,08,16.70
2012,06,15,15,09,16.70
2012,06,15,15,10,16.70
2012,06,15,15,11,16.70
2012,06,15,15,12,16.70
2012,06,15,15,13,16.70
2012,06,15,15,14,16.80
2012,06,15,15,15,16.70
2012,06,15,15,16,16.70
2012,06,15,15,17,16.60
2012,06,15,15,18,16.50
2012,06,15,15,19,16.40
2012,06,15,15,20,16.40
2012,06,15,15,21,16.40
2012,06,15,15,22,16.30
2012,06,15,15,23,16.40
2012,06,15,15,24,16.40
2012,06,15,15,25,16.40
2012,06,15,15,26,16.30
2012,06,15,15,27,16.30
2012,06,15,15,28,16.20
2012,06,15,15,29,16.20
2012,06,15,15,30,16.20
2012,06,15,15,31,16.20
2012,06,15,15,32,16.20
2012,06,15,15,33,16.10
2012,06,15,15,34,16.10
2012,06,15,15,35,16.20
2012,06,15,15,36,16.20
2012,06,15,15,37,16.30
2012,06,15,15,38,16.30
2012,06,15,15,39,16.40
2012,06,15,15,40,16.40
2012,06,15,15,41,16.30
2012,06,15,15,42,16.30
2012,06,15,15,43,16.30
2012,06,15,15,44,16.30
2012,06,15,15,45,16.40
2012,06,15,15,46,16.40
2012,06,15,15,47,16.50
2012,06,15,15,48,16.60
2012,06,15,15,49,16.70
2012,06,15,15,50,16.70
2012,06,15,15,51,16.60
2012,06,15,15,52,16.70
2012,06,15,15,53,16.70
2012,06,15,15,54,16.80
2012,06,15,15,55,16.90
2012,06,15,15,56,16.90
2012,06,15,15,57,16.90
2012,06,15,15,58,16.90
2012,06,15,15,59,16.90
2012,06,15,16,00,16.90
2012,06,15,16,01,16.90
2012,06,15,16,02,17.00
2012,06,15,16,03,17.00
2012,06,15,16,04,17.10
2012,06,15,16,05,17.10
2012,06,15,16,06,17.00
2012,06,15,16,07,16.90
2012,06,15,16,08,16.80
2012,06,15,16,09,16.80
2012,06,15,16,10,16.80
2012,06,15,16,11,16.80
2012,06,15,16,12,16.80
2012,06,15,16,13,16.90
2012,06,15,16,14,17.00
2012,06,15,16,15,17.00
2012,06,15,16,16,16.90
2012,06,15,16,17,16.80
2012,06,15,16,18,16.70
2012,06,15,16,19,16.70
2012,06,15,16,20,16.70
2012,06,15,16,21,16.70
2012,06,15,16,22,16.70
2012,06,15,16,23,16.70
2012,06,15,16,24,16.80
2012,06,15,16,25,16.80
2012,06,15,16,26,16.80
2012,06,15,16,27,16.90
2012,06,15,16,28,17.00
2012,06,15,16,29,17.00
2012,06,15,16,30,17.10
2012,06,15,16,31,17.20
2012,06,15,16,32,17.30
2012,06,15,16,33,17.30
2012,06,15,16,34,17.40
2012,06,15,16,35,17.50
2012,06,15,16,36,17.50
2012,06,15,16,37,17.50
2012,06,15,16,38,17.50
2012,06,15,16,39,17.40
2012,06,15,16,40,17.40
2012,06,15,16,41,17.40
2012,06,15,16,42,17.30
2012,06,15,16,43,17.30
2012,06,15,16,44,17.30
2012,06,15,16,45,17.30
2012,06,15,16,46,17.30
2012,06,15,16,47,17.30
2012,06,15,16,48,17.30
2012,06,15,16,49,17.40
2012,06,15,16,50,17.50
2012,06,15,16,51,17.60
2012,06,15,16,52,17.80
2012,06,15,16,53,17.90
2012,06,15,16,54,18.00
2012,06,15,16,55,18.10
2012,06,15,16,56,18.20
2012,06,15,16,57,18.20
2012,06,15,16,58,18.30
2012,06,15,16,59,18.30
2012,06,15,17,00,18.30
2012,06,15,17,01,18.30
2012,06,15,17,02,18.30
2012,06,15,17,03,18.30
2012,06,15,17,04,18.20
2012,06,15,17,05,18.20
2012,06,15,17,06,18.20
2012,06,15,17,07,18.10
2012,06,15,17,08,18.10
2012,06,15,17,09,18.00
2012,06,15,17,10,17.90
2012,06,15,17,11,17.90
2012,06,15,17,12,17.90
2012,06,15,17,13,17.90
2012,06,15,17,14,17.90
2012,06,15,17,15,17.90
2012,06,15,17,16,17.90
2012,06,15,17,17,17.90
2012,06,15,17,18,17.90
2012,06,15,17,19,17.90
2012,06,15,17,20,17.90
2012,06,15,17,21,17.90
2012,06,15,17,22,17.90
2012,06,15,17,23,17.90
2012,06,15,17,24,18.00
2012,06,15,17,25,18.10
2012,06,15,17,26,18.10
2012,06,15,17,27,18.10
2012,06,15,17,28,18.10
2012,06,15,17,29,18.20
2012,06,15,17,30,18.20
2012,06,15,17,31,18.20
2012,06,15,17,32,18.20
2012,06,15,17,33,18.10
2012,06,15,17,34,18.10
2012,06,15,17,35,18.10
2012,06,15,17,36,18.20
2012,06,15,17,37,18.10
2012,06,15,17,38,18.10